Temp
11 10 9 9 9 9 10 10 11 11 11 11 10 10 10 10 10 11 10 9 9 9 9 8 8 9 8 8 8 8 8 9 9 9 9 9 9 8 8 8 8 8 8 8 8 8 8 8 8
11 10 10 10 10 10 11 11 12 12 11 11 9 10 10 10 11 11 10 9 9 9 9 9 9 9 9 9 8 8 9 9 9 9 9 9 9 9 9 8 8 8 8 8 8 8 8 8 8
11 10 10 10 10 10 10 11 11 11 11 11 10 11 10 10 11 11 10 10 9 9 9 9 9 9 9 9 8 8 9 9 9 9 9 9 9 9 8 8 8 8 8 8 8 8 8 8 8
11 10 10 10 10 10 10 12 11 11 11 11 11 11 11 11 11 11 10 10 9 9 9 9 9 9 9 9 8 9 9 9 9 9 9 9 9 9 9 9 9 9 8 8 8 8 8 8 8
11 10 10 10 10 11 10 10 11 11 12 11 11 12 12 11 10 11 10 10 9 9 9 9 9 9 9 9 9 9 9 9 9 9 9 9 9 9 9 9 9 9 9 9 8 8 8 8 8
10 10 10 11 11 12 12 12 11 11 11 12 12 12 12 11 10 11 10 10 9 10 9 9 9 9 9 9 9 9 9 9 9 9 9 8 8 9 9 9 9 9 9 9 8 7 8 8 8
10 10 11 12 12 12 11 11 10 11 11 12 12 12 12 11 10 11 10 10 9 9 9 9 9 9 9 9 9 9 9 9 9 9 9 9 9 9 9 9 9 9 9 8 8 7 7 8 8
11 11 12 12 11 11 11 11 11 12 12 12 12 12 13 13 10 10 10 9 9 9 9 9 9 9 9 9 9 9 9 9 9 9 9 9 9 9 9 9 8 8 8 8 8 8 7 7 8
11 11 12 12 11 11 12 12 12 12 11 12 12 12 13 13 11 10 10 10 9 9 9 9 9 9 9 9 9 9 9 9 9 9 9 9 9 9 9 9 8 8 8 7 7 8 7 7 7
11 12 12 12 12 12 12 12 12 12 12 12 12 12 12 13 11 11 11 10 10 10 10 9 9 9 9 9 9 9 9 9 9 9 8 8 8 8 9 9 9 8 8 7 7 7 7 7 7
12 12 12 13 12 12 13 12 13 13 13 13 14 14 12 12 12 11 11 11 10 10 10 9 9 9 9 9 9 9 9 9 9 9 9 8 8 8 8 8 8 7 7 7 7 7 7 5 6
12 13 13 12 12 12 12 12 13 13 14 14 13 13 13 12 12 12 12 11 11 10 10 9 9 9 9 9 9 9 9 8 8 9 9 8 8 8 8 8 8 8 8 7 7 7 6 6 5
13 13 13 12 12 12 12 13 13 13 14 14 14 12 13 12 12 12 11 11 10 10 10 10 9 9 9 9 9 9 8 8 8 9 9 9 8 8 8 8 8 8 8 8 7 7 6 6 5
13 12 12 13 12 13 13 12 13 13 13 13 14 13 12 13 12 12 11 11 11 10 10 10 9 9 9 9 9 9 9 9 9 9 9 8 8 8 8 9 8 9 9 8 7 7 6 6 6
12 12 12 13 12 13 14 13 13 13 13 13 14 13 12 12 12 12 11 12 11 11 10 10 9 9 9 9 9 9 9 9 9 9 9 9 8 8 8 8 9 9 8 8 7 7 7 6 6
12 11 12 14 12 12 13 13 13 14 13 15 14 14 13 13 12 12 11 11 11 11 11 10 10 9 9 9 9 10 9 10 10 10 9 9 9 9 9 8 9 9 8 8 7 7 6 6 6
10 11 12 14 13 12 13 13 13 13 14 14 15 14 14 13 13 12 11 10 11 11 11 10 10 10 10 9 9 9 10 9 10 10 10 10 9 9 9 9 8 9 8 7 7 6 6 5 6
11 11 12 13 14 13 12 14 13 13 14 14 15 15 15 14 14 13 12 10 10 11 11 10 10 10 10 9 9 9 10 10 10 10 11 10 10 10 10 9 8 8 8 8 7 6 6 5 5
11 12 12 13 14 13 13 13 14 14 13 14 14 15 15 15 13 13 12 12 11 10 11 11 10 10 10 10 10 10 10 11 11 10 10 10 10 10 10 9 9 9 9 9 8 7 7 6 5
10 11 12 13 13 13 14 14 14 15 14 15 15 15 15 14 13 13 13 13 13 11 10 11 11 10 11 10 11 10 10 11 10 10 10 10 11 11 10 9 9 9 9 9 9 9 8 7 6
10 11 12 14 14 13 13 14 14 15 14 13 14 14 15 15 15 15 14 14 14 14 12 11 11 11 11 11 10 10 10 10 11 11 11 10 11 10 10 10 9 9 9 9 9 9 9 7 8
10 12 12 13 12 12 14 13 14 14 15 14 14 14 15 15 14 14 14 14 14 14 13 12 12 11 11 11 11 11 11 11 11 11 10 10 10 11 10 10 10 9 9 9 9 10 9 8 7
11 11 11 12 12 12 13 13 14 14 13 15 15 15 15 15 15 15 15 14 14 14 13 12 12 11 11 11 11 11 11 11 11 10 10 11 10 11 11 11 10 10 10 9 10 10 9 9 8
10 10 11 11 11 11 13 12 13 14 15 15 16 16 16 16 16 15 15 14 14 14 13 12 12 11 11 11 11 11 11 11 11 10 11 11 11 11 11 11 11 10 10 10 10 10 10 10 9
10 10 10 9 9 10 13 12 13 14 15 15 16 16 16 16 16 16 15 14 14 14 14 14 12 12 11 11 11 11 11 11 11 11 11 11 11 12 11 11 11 10 10 10 10 10 10 10 10
10 10 10 6 7 11 13 11 14 15 15 16 16 16 17 17 16 16 16 15 14 15 14 14 13 13 12 12 12 12 11 11 11 11 11 11 11 11 11 11 11 10 10 11 10 10 10 11 11
10 10 11 12 11 12 13 14 14 14 16 16 16 16 16 16 16 16 16 16 16 15 15 14 14 14 13 13 12 12 12 12 12 12 11 12 12 11 12 12 11 11 11 11 11 11 11 11 11
10 11 10 11 8 8 11 14 15 15 15 16 17 17 16 16 16 16 16 16 16 16 15 14 14 13 14 13 13 13 12 12 12 12 12 12 12 12 12 12 12 12 11 11 11 11 11 11 10
10 11 11 11 12 11 8 13 15 15 16 16 16 17 17 17 18 16 17 16 16 16 16 15 14 13 13 13 13 13 13 13 13 12 12 12 12 12 12 12 12 12 12 12 11 11 11 11 11
9 11 11 12 10 12 12 12 15 16 16 17 17 17 18 18 18 17 17 17 16 16 16 15 15 14 13 13 13 14 13 13 13 13 12 12 12 12 12 12 12 12 12 12 12 12 12 11 11
Height
3148 3147 3147 3148 3153 3148 3146 3145 3143 3144 3147 3149 3152 3153 3156 3157 3159 3162 3160 3165 3168 3172 3175 3177 3181 3184 3186 3188 3189 3190 3192 3193 3193 3194 3194 3195 3195 3195 3197 3196 3197 3197 3198 3198 3198 3198 3198 3197 3197
3146 3147 3147 3146 3148 3146 3145 3143 3144 3145 3147 3150 3152 3152 3155 3158 3158 3157 3160 3166 3171 3175 3177 3180 3184 3186 3188 3190 3191 3193 3194 3195 3195 3196 3196 3196 3197 3198 3198 3198 3199 3199 3198 3199 3199 3198 3198 3198 3199
3146 3146 3147 3145 3144 3145 3145 3143 3146 3147 3150 3150 3151 3153 3156 3157 3159 3160 3164 3167 3172 3177 3180 3183 3186 3188 3190 3192 3193 3195 3196 3197 3197 3198 3198 3199 3200 3200 3201 3201 3201 3200 3200 3200 3200 3199 3199 3200 3201
3146 3147 3147 3145 3143 3144 3143 3140 3147 3147 3149 3150 3152 3155 3156 3157 3159 3162 3165 3170 3174 3178 3182 3185 3188 3190 3192 3193 3195 3197 3199 3199 3200 3201 3202 3202 3203 3203 3203 3203 3203 3203 3202 3202 3202 3201 3201 3202 3203
3145 3145 3145 3144 3143 3142 3145 3146 3148 3148 3148 3150 3153 3153 3154 3156 3160 3163 3167 3171 3176 3179 3183 3187 3189 3191 3193 3195 3197 3199 3200 3201 3202 3203 3203 3205 3205 3204 3205 3205 3205 3205 3204 3203 3203 3203 3203 3204 3204
3144 3144 3144 3144 3142 3143 3145 3145 3148 3151 3150 3151 3153 3153 3154 3156 3161 3165 3169 3173 3178 3182 3184 3188 3190 3192 3195 3197 3199 3201 3202 3203 3204 3205 3206 3206 3206 3206 3206 3207 3207 3206 3205 3205 3205 3204 3205 3205 3206
3143 3144 3144 3144 3143 3144 3147 3146 3147 3149 3150 3152 3153 3153 3155 3156 3162 3166 3171 3175 3179 3183 3187 3190 3191 3193 3196 3199 3201 3203 3204 3205 3206 3208 3209 3209 3209 3209 3208 3209 3209 3208 3207 3207 3207 3207 3208 3207 3208
3144 3145 3146 3144 3143 3144 3146 3148 3148 3149 3152 3153 3153 3154 3154 3157 3163 3167 3172 3176 3180 3184 3188 3191 3193 3195 3198 3200 3202 3204 3206 3208 3209 3210 3211 3211 3212 3211 3210 3211 3211 3211 3210 3210 3210 3210 3210 3211 3211
3144 3145 3144 3147 3147 3146 3145 3148 3148 3151 3152 3152 3152 3155 3159 3159 3163 3167 3171 3175 3180 3184 3188 3192 3194 3197 3199 3201 3204 3206 3208 3209 3210 3211 3212 3213 3214 3214 3213 3213 3213 3213 3213 3213 3213 3214 3214 3214 3214
3144 3143 3144 3147 3147 3147 3148 3151 3151 3151 3152 3154 3154 3155 3158 3161 3163 3167 3171 3176 3180 3185 3189 3192 3196 3198 3201 3203 3206 3208 3209 3211 3212 3212 3213 3214 3215 3216 3216 3215 3215 3215 3216 3216 3216 3215 3216 3216 3216
3144 3143 3144 3146 3147 3145 3150 3152 3152 3152 3154 3156 3155 3155 3157 3162 3165 3169 3173 3178 3182 3187 3190 3193 3196 3199 3202 3205 3208 3209 3210 3212 3213 3214 3215 3215 3217 3218 3218 3218 3218 3217 3217 3217 3216 3217 3218 3217 3218
3141 3143 3144 3147 3148 3148 3150 3152 3153 3154 3155 3155 3154 3156 3157 3161 3165 3169 3174 3179 3182 3187 3191 3195 3197 3200 3203 3206 3209 3210 3211 3212 3214 3215 3217 3217 3218 3219 3219 3219 3220 3219 3219 3218 3218 3217 3218 3219 3219
3138 3142 3143 3145 3147 3149 3150 3150 3152 3153 3154 3155 3154 3155 3158 3163 3166 3170 3175 3180 3183 3187 3191 3195 3198 3200 3203 3207 3209 3211 3212 3213 3215 3217 3218 3219 3219 3220 3221 3220 3221 3220 3220 3219 3219 3219 3219 3220 3220
3138 3141 3141 3141 3144 3146 3149 3150 3150 3151 3153 3155 3154 3155 3159 3163 3166 3170 3173 3178 3182 3187 3190 3194 3198 3201 3204 3208 3210 3212 3214 3215 3217 3218 3219 3219 3220 3221 3222 3222 3222 3221 3220 3220 3220 3219 3219 3220 3221
3135 3138 3139 3137 3141 3146 3146 3149 3149 3150 3152 3154 3154 3156 3160 3163 3166 3170 3174 3177 3182 3186 3190 3194 3198 3201 3204 3207 3210 3212 3214 3216 3218 3220 3220 3219 3221 3223 3224 3224 3224 3223 3222 3221 3221 3220 3220 3220 3221
3132 3136 3136 3136 3139 3144 3148 3148 3148 3149 3151 3153 3154 3156 3159 3162 3166 3170 3174 3177 3181 3185 3189 3193 3196 3200 3204 3207 3210 3213 3214 3217 3219 3220 3221 3221 3222 3224 3225 3226 3225 3223 3223 3223 3223 3221 3221 3222 3222
3127 3129 3132 3134 3137 3141 3145 3145 3147 3149 3150 3152 3153 3156 3158 3160 3164 3168 3172 3176 3180 3183 3188 3190 3194 3198 3203 3206 3209 3213 3215 3217 3219 3221 3221 3222 3223 3225 3226 3227 3226 3225 3224 3224 3223 3224 3224 3225 3225
3119 3124 3129 3129 3136 3139 3142 3143 3145 3147 3149 3151 3153 3155 3156 3158 3161 3165 3170 3174 3178 3182 3185 3189 3193 3197 3201 3205 3208 3211 3214 3217 3219 3221 3222 3223 3224 3224 3227 3228 3227 3226 3225 3224 3224 3224 3225 3226 3226
3118 3122 3126 3129 3133 3138 3139 3141 3142 3143 3146 3148 3151 3153 3155 3157 3160 3164 3167 3171 3174 3179 3182 3185 3189 3194 3198 3202 3205 3208 3212 3216 3218 3220 3222 3223 3224 3225 3227 3227 3228 3227 3227 3225 3224 3224 3225 3226 3226
3113 3117 3121 3126 3130 3135 3137 3134 3136 3138 3138 3142 3145 3149 3154 3155 3156 3159 3163 3166 3170 3175 3179 3183 3187 3192 3196 3200 3205 3209 3211 3214 3217 3218 3220 3222 3223 3225 3226 3227 3227 3227 3227 3227 3226 3225 3226 3226 3227
3107 3112 3118 3122 3126 3129 3132 3132 3133 3132 3135 3140 3144 3149 3152 3153 3154 3157 3160 3162 3166 3171 3174 3179 3185 3189 3194 3198 3202 3205 3208 3211 3213 3217 3219 3221 3223 3224 3225 3227 3227 3227 3228 3228 3228 3227 3227 3227 3229
3102 3107 3115 3119 3122 3124 3128 3128 3126 3129 3129 3132 3138 3142 3147 3150 3153 3154 3158 3161 3163 3168 3172 3176 3182 3186 3191 3195 3198 3202 3207 3210 3214 3216 3219 3220 3222 3223 3225 3226 3227 3227 3228 3229 3229 3229 3229 3230 3230
3095 3105 3111 3115 3115 3119 3118 3125 3122 3123 3121 3124 3131 3137 3142 3146 3149 3152 3155 3160 3163 3165 3170 3173 3177 3182 3186 3191 3195 3199 3203 3208 3212 3214 3216 3218 3220 3222 3224 3225 3227 3228 3228 3229 3231 3230 3231 3232 3232
3098 3105 3110 3112 3114 3108 3104 3115 3113 3114 3112 3120 3127 3133 3138 3141 3145 3149 3153 3159 3162 3163 3167 3170 3173 3178 3182 3187 3191 3196 3200 3205 3209 3212 3214 3216 3219 3221 3223 3225 3226 3227 3228 3230 3231 3231 3232 3233 3234
3094 3099 3104 3108 3105 3093 3101 3104 3104 3108 3111 3116 3121 3125 3130 3136 3141 3145 3149 3151 3156 3159 3162 3166 3169 3173 3178 3182 3187 3192 3197 3202 3206 3209 3212 3214 3217 3220 3222 3223 3225 3226 3227 3229 3230 3231 3233 3234 3236
3082 3089 3088 3096 3094 3093 3096 3086 3092 3102 3108 3112 3114 3119 3125 3129 3137 3141 3145 3148 3151 3155 3159 3161 3165 3169 3173 3178 3183 3188 3193 3198 3202 3206 3209 3212 3215 3217 3219 3221 3222 3224 3226 3227 3229 3231 3232 3235 3237
3075 3074 3087 3088 3087 3089 3082 3084 3091 3098 3103 3107 3110 3113 3119 3123 3130 3136 3141 3144 3147 3151 3154 3157 3161 3166 3169 3174 3180 3184 3189 3194 3198 3203 3206 3209 3212 3214 3216 3218 3219 3221 3224 3226 3228 3229 3232 3234 3236
3067 3077 3082 3080 3084 3086 3075 3077 3077 3088 3096 3102 3105 3107 3112 3116 3121 3131 3136 3140 3143 3149 3152 3154 3158 3162 3166 3170 3175 3180 3185 3190 3195 3198 3202 3205 3208 3211 3213 3215 3217 3219 3221 3223 3225 3227 3230 3232 3234
3060 3063 3069 3077 3077 3074 3077 3066 3073 3083 3090 3096 3101 3104 3109 3111 3115 3122 3128 3133 3139 3146 3147 3150 3153 3157 3159 3165 3171 3176 3181 3186 3190 3193 3197 3201 3204 3207 3210 3212 3214 3216 3219 3221 3223 3226 3227 3229 3232
3053 3058 3064 3064 3066 3069 3070 3060 3070 3077 3085 3090 3095 3100 3104 3108 3112 3115 3120 3126 3134 3140 3142 3144 3148 3152 3156 3162 3166 3171 3177 3181 3185 3190 3194 3197 3200 3203 3206 3208 3211 3213 3215 3218 3220 3222 3224 3226 3228
Wind_Speed
2 4 6 6 4 3 6 5 8 20 17 20 19 14 10 2 14 2 29 34 35 32 31 30 25 22 19 19 18 18 16 14 14 14 14 14 13 13 12 12 11 10 9 9 10 9 11 13 13
2 2 2 3 4 4 5 8 13 16 19 20 23 11 9 9 5 14 36 36 34 31 30 28 24 20 19 18 19 18 17 15 15 15 15 14 14 14 13 13 12 11 10 9 8 8 10 11 12
3 2 3 3 4 3 4 11 15 20 19 21 23 12 13 9 6 25 32 35 33 31 28 25 21 19 17 18 19 18 17 15 15 16 16 16 16 15 15 14 12 10 8 8 6 7 8 9 10
4 1 3 2 9 4 9 15 18 17 20 24 15 9 13 12 9 28 32 34 32 31 27 23 19 17 17 18 19 18 16 15 15 16 16 16 16 15 13 11 9 7 7 5 6 7 8 11 12
5 1 1 1 5 8 12 15 17 19 15 17 14 13 8 17 24 27 33 34 31 30 26 21 18 17 18 19 18 17 16 16 15 15 16 15 14 13 11 10 8 8 6 5 7 8 9 11 13
2 3 5 2 5 6 11 17 18 17 12 9 7 8 14 23 32 29 34 33 30 27 24 19 18 18 19 18 17 17 16 16 15 14 15 15 14 13 11 11 12 11 10 10 11 12 14 14 14
4 8 5 1 4 5 10 17 20 12 10 12 9 10 22 29 32 28 33 32 30 26 22 18 16 19 19 17 17 16 16 15 15 14 12 13 12 13 12 13 16 15 15 17 16 18 17 19 17
9 6 5 5 5 9 5 10 8 9 5 9 8 13 25 27 30 30 32 32 29 25 21 17 18 19 18 17 17 16 16 15 13 13 11 10 9 11 12 14 15 17 19 18 18 17 18 17 17
8 6 7 8 4 2 9 14 9 10 3 8 15 14 22 26 29 31 31 32 30 26 22 19 19 19 18 18 18 17 15 14 13 13 11 10 10 10 11 14 15 15 16 16 15 16 17 18 15
12 6 7 13 8 11 7 6 5 7 7 7 16 18 27 27 26 29 30 29 28 26 23 22 21 19 19 18 17 15 14 13 12 11 11 11 11 9 10 12 12 13 11 11 11 9 11 10 14
14 19 22 12 10 11 7 3 3 3 5 5 1 16 28 27 25 27 28 27 26 24 23 24 22 20 18 17 16 15 14 13 11 12 12 13 12 9 8 9 9 8 8 9 6 8 9 10 13
21 20 17 12 3 3 5 6 11 6 3 6 5 9 20 26 28 27 27 27 27 25 23 24 23 21 19 18 16 13 11 15 11 14 10 11 14 12 8 6 7 8 7 8 7 5 6 10 11
21 21 11 4 4 6 7 6 9 9 3 4 7 13 17 23 27 27 27 27 26 26 25 25 24 22 19 18 17 16 13 13 13 13 9 11 11 8 4 5 6 4 5 6 7 6 5 6 10
15 17 9 5 3 1 11 11 12 14 12 8 7 12 16 20 24 29 29 27 28 27 26 26 24 22 20 19 18 18 14 13 10 14 12 12 11 8 7 6 7 2 3 4 5 3 3 1 7
17 16 12 13 9 5 12 20 22 20 16 9 11 13 17 22 24 27 27 25 26 27 27 27 25 23 21 18 17 17 15 12 10 9 9 11 10 9 5 5 2 5 6 3 5 6 7 6 4
26 21 21 20 15 22 11 15 16 14 17 8 11 15 19 20 20 26 27 26 27 29 29 28 27 24 22 19 16 14 14 13 13 11 8 9 8 7 6 2 5 6 5 5 7 9 11 11 9
24 21 25 19 14 18 18 23 18 16 16 12 12 15 18 22 21 23 27 28 27 29 30 29 28 26 23 20 16 14 15 16 13 12 10 8 8 6 6 1 3 5 4 5 7 7 8 8 8
24 30 24 25 20 16 15 13 22 23 22 17 15 16 16 20 19 21 24 29 27 25 29 30 29 27 24 21 20 17 16 17 14 10 8 9 8 6 5 3 4 4 4 4 4 5 9 9 6
22 27 31 28 21 17 28 30 26 27 32 27 22 21 17 13 21 21 23 27 29 26 25 32 30 29 28 25 23 20 17 15 14 11 7 7 7 6 5 2 3 4 5 7 6 4 4 7 8
37 23 30 32 28 18 18 30 30 30 32 31 29 23 16 18 23 24 23 24 27 30 29 29 31 32 29 27 22 18 15 13 12 12 10 7 6 6 7 5 1 3 5 5 6 7 5 9 9
42 38 33 35 27 22 16 15 36 32 38 40 36 26 16 22 20 17 22 25 23 25 31 33 33 33 30 27 24 22 21 19 17 14 10 8 7 7 7 7 4 3 3 4 6 8 6 9 9
45 44 37 36 26 16 12 9 24 38 35 43 38 35 28 22 27 23 20 16 26 24 27 31 33 32 30 28 26 24 22 18 13 11 11 11 10 8 7 6 6 5 4 4 3 8 8 8 8
50 44 37 35 33 27 32 11 16 34 48 46 41 36 33 28 28 27 22 22 9 25 27 29 30 31 30 28 27 25 23 19 16 15 14 13 13 11 9 8 9 8 6 6 6 7 8 8 9
45 29 35 35 29 21 42 18 19 27 42 41 36 36 33 34 28 23 24 25 18 19 25 27 29 31 30 30 28 27 25 22 21 20 17 15 14 12 10 9 10 10 9 8 8 9 9 10 10
40 27 14 10 11 14 32 22 30 23 33 36 35 35 33 39 33 23 28 32 28 22 27 29 29 31 31 31 31 29 26 24 23 21 18 15 14 12 11 10 9 10 11 11 11 12 12 11 11
35 39 13 8 4 11 33 15 18 37 27 21 31 45 36 34 38 32 25 29 29 25 21 26 30 31 32 32 32 30 28 27 26 24 21 18 15 14 14 12 11 12 15 15 14 15 15 14 12
41 45 43 19 9 6 19 22 32 28 21 30 24 33 48 44 42 37 32 21 23 24 25 18 25 28 29 30 30 31 30 29 28 25 23 21 19 17 16 14 13 13 15 16 17 17 16 15 14
40 34 35 35 10 5 7 18 25 32 40 27 25 23 27 36 45 46 38 31 19 18 21 20 18 20 23 26 29 30 30 29 28 27 26 23 21 20 17 15 14 14 15 18 19 19 18 17 16
38 39 37 34 24 13 1 20 38 29 30 40 36 31 25 22 33 45 39 36 26 19 20 19 19 21 22 26 28 30 31 30 30 29 28 25 23 22 20 18 16 16 15 16 18 21 21 20 18
29 40 34 28 23 30 21 35 15 20 35 28 29 32 33 31 27 37 40 36 34 26 25 23 23 22 21 22 27 28 30 32 32 30 29 27 25 24 22 21 19 17 15 13 14 18 23 23 22
Wind_Direction
153 93 134 173 212 250 260 233 191 180 165 151 155 143 175 200 171 179 158 160 154 153 149 144 147 147 146 142 139 134 128 126 121 113 110 113 112 111 110 111 109 104 100 96 86 77 73 74 81
111 150 107 200 238 229 233 161 135 162 156 171 172 189 210 215 221 169 159 157 155 155 150 147 150 150 148 147 143 139 134 132 122 116 114 114 115 114 114 112 111 109 103 96 95 83 72 76 77
55 121 287 254 239 240 235 173 112 155 178 169 184 198 200 224 197 163 158 157 156 156 152 149 152 152 150 150 147 143 139 131 123 117 119 117 116 114 112 111 112 113 110 107 97 88 88 91 93
39 224 301 214 251 256 196 167 184 166 178 182 182 202 210 225 174 162 159 156 158 157 154 153 152 152 151 150 148 144 141 133 126 121 119 117 116 112 112 110 105 100 90 87 92 95 101 98 98
19 324 250 334 170 192 209 176 182 169 174 181 213 226 223 186 161 161 159 158 160 158 156 154 153 152 150 148 146 144 143 138 130 129 129 125 121 118 109 104 92 81 73 74 84 93 103 107 109
103 155 162 91 198 228 185 168 163 161 176 183 187 246 185 161 163 161 161 159 160 161 158 159 155 155 152 150 148 148 147 141 138 138 134 130 127 119 112 97 82 74 76 93 96 97 110 114 114
146 118 145 163 240 244 213 207 164 174 171 186 197 217 168 156 164 164 165 162 162 165 163 162 159 156 155 154 151 152 147 143 143 140 139 133 128 123 110 96 87 78 86 98 97 102 105 107 110
132 131 112 89 116 152 179 111 167 157 184 230 196 207 180 164 164 167 169 166 166 167 167 164 158 155 154 153 152 154 147 145 141 137 135 129 124 118 111 101 95 83 84 87 95 104 100 102 106
211 239 225 153 162 227 142 178 144 176 208 194 180 191 195 169 167 173 173 171 170 171 168 163 157 157 155 153 155 154 149 146 142 140 140 130 118 108 110 106 99 87 81 86 96 97 101 105 98
204 182 160 133 90 85 157 159 155 200 185 169 165 181 191 181 170 176 174 172 172 173 170 163 159 162 159 158 157 156 150 148 144 142 140 134 123 113 112 99 96 90 86 93 85 91 106 100 104
166 137 134 129 73 103 106 194 184 153 195 173 244 192 193 187 178 182 179 175 173 174 174 165 163 166 164 163 156 157 154 148 141 140 138 126 116 112 114 95 97 89 83 91 88 95 80 96 122
203 179 162 165 309 306 322 241 228 183 107 132 139 246 195 193 185 183 182 175 178 179 177 169 168 170 168 163 158 160 161 159 149 148 134 119 113 117 114 73 98 103 89 99 105 83 89 92 103
208 184 196 199 219 297 271 266 225 232 236 247 169 187 195 194 186 183 184 181 182 183 180 174 174 175 174 169 165 163 148 157 161 153 154 123 119 125 105 65 75 100 108 100 129 114 111 94 88
195 185 215 220 321 289 210 231 263 221 221 244 175 164 184 193 190 185 186 187 186 188 183 179 178 179 182 177 172 170 163 162 159 161 145 141 111 112 76 64 39 45 91 98 112 104 64 74 102
202 210 217 183 186 193 199 224 242 229 236 243 174 170 184 193 196 192 189 193 189 190 187 184 182 185 188 188 184 177 169 170 179 179 154 130 120 121 94 50 7 93 93 91 85 89 92 86 48
219 223 227 182 203 230 249 211 221 209 213 211 184 181 184 194 194 198 191 198 191 193 192 186 188 190 195 194 196 193 181 186 179 181 157 131 136 142 118 72 32 77 92 96 79 76 83 72 78
207 214 218 209 206 230 232 229 236 217 221 211 184 191 189 192 195 196 195 196 194 196 196 191 192 195 198 200 203 209 194 198 190 179 170 150 158 156 142 116 44 86 101 104 161 98 97 121 77
207 211 211 222 196 223 217 236 235 232 220 220 198 185 190 195 196 196 192 198 197 197 200 199 195 198 199 202 207 202 190 189 178 184 184 178 175 172 169 152 85 101 99 93 126 136 141 146 157
213 218 217 215 218 230 232 241 240 247 226 220 215 197 186 192 187 201 201 198 198 198 200 201 198 197 198 201 203 200 181 178 171 174 188 194 184 173 183 178 85 92 72 82 109 124 122 157 175
216 201 214 216 220 227 234 243 245 241 234 237 219 214 199 189 188 198 204 199 200 198 198 200 201 198 197 199 202 202 203 189 186 182 188 204 193 183 175 189 122 79 88 76 86 94 112 148 162
220 220 214 215 222 234 245 243 232 239 240 227 221 220 223 216 206 194 207 206 196 191 188 194 197 197 198 198 201 205 204 205 199 193 195 204 216 196 189 179 177 132 121 80 78 84 102 148 128
220 217 217 217 244 255 225 238 235 227 236 231 220 218 223 220 212 210 212 211 206 190 188 187 193 196 197 200 201 207 211 213 207 193 198 207 217 209 200 181 186 174 166 141 101 101 102 113 123
222 218 221 220 243 256 249 253 252 222 227 226 226 222 225 227 215 218 220 231 198 195 198 188 192 194 197 202 206 208 213 212 213 215 215 212 213 211 202 199 193 185 180 172 154 124 120 128 128
220 225 229 233 251 253 250 229 235 232 226 223 234 229 229 229 228 223 223 228 213 192 199 200 197 196 199 202 208 212 214 213 214 216 215 217 217 214 204 195 190 189 184 181 167 145 139 138 136
217 215 218 232 220 237 243 239 231 239 238 232 229 231 232 232 227 218 211 217 212 207 200 202 202 203 202 203 208 214 215 216 217 219 223 221 219 219 208 200 195 184 191 187 177 159 154 151 141
214 208 200 188 178 222 238 220 225 238 231 238 239 236 237 235 224 219 208 200 209 212 205 206 204 206 207 206 207 210 215 216 218 217 220 220 215 213 207 208 207 197 195 192 185 178 174 168 159
219 216 216 245 245 217 233 241 241 230 230 233 237 233 236 237 229 221 221 199 204 211 215 205 209 209 210 209 210 209 213 217 216 217 217 217 213 211 213 215 214 210 199 201 198 192 187 180 178
224 215 210 224 206 235 254 234 235 228 232 224 223 230 236 241 236 226 224 220 207 208 208 205 206 214 215 213 213 212 214 216 217 217 219 216 213 214 215 218 218 216 203 201 205 205 202 198 193
215 217 217 222 230 222 270 242 241 237 236 232 231 235 240 244 223 224 227 223 213 203 194 195 201 205 209 216 217 214 214 213 216 219 220 219 214 211 215 216 219 223 216 207 205 208 211 210 210
224 224 217 210 213 226 238 253 216 244 233 227 234 243 243 244 224 222 226 226 215 208 204 202 198 205 210 216 218 216 216 215 216 219 219 218 217 216 213 218 220 224 228 216 208 210 215 217 219